Regional Weather Roundup
Issued by NWS

Home | Current Version | Previous Version | Graphics & Text | Print | Product List | Glossary On
Versions: 1 2 3 4 5 6 7 8 9 10 11 12 13 14 15 16 17 18 19 20 21 22 23 24 25 26 27 28 29 30 31 32 33 34 35 36 37 38 39 40 41 42 43 44 45 46 47 48 49 50
000
ASUS43 KLMK 161602
RWRKY
KENTUCKY REGIONAL WEATHER ROUNDUP
NATIONAL WEATHER SERVICE LOUISVILLE KY
1200 PM EDT MON OCT 16 2017

NOTE "FAIR" INDICATES FEW OR NO CLOUDS BELOW 12,000 FEET
WITH NO SIGNIFICANT WEATHER AND/OR OBSTRUCTIONS TO VISIBILITY.

KYZ001>023-026-027-061>063-070>075-161700-
WESTERN AND SOUTH CENTRAL KENTUCKY

CITY           SKY/WX    TMP DP  RH WIND       PRES   REMARKS
PADUCAH        SUNNY     58  42  55 N12       30.39R
HENDERSON      MOSUNNY   58  42  55 N9        30.40R
OWENSBORO      MOSUNNY   58  41  53 N10       30.38R
HOPKINSVILLE   SUNNY     58  43  59 N12       30.36S
BOWLING GREEN  MOSUNNY   59  46  62 NE9       30.35S
GLASGOW        NOT AVBL
$$

KYZ024-025-028>034-038-045-046-053-161700-
NORTH CENTRAL KENTUCKY

CITY           SKY/WX    TMP DP  RH WIND       PRES   REMARKS
LOUISVILLE/SDF MOSUNNY   59  45  59 N9        30.35S
LOUISVILLE/LOU MOSUNNY   58  47  66 N7        30.36R
FORT KNOX      MOSUNNY   58  43  58 N5        30.34R
$$

KYZ035>037-039>044-047>052-055>060-089>105-161700-
NORTHEAST KENTUCKY

CITY           SKY/WX    TMP DP  RH WIND       PRES   REMARKS
LEXINGTON      PTSUNNY   59  45  59 N8G18     30.34R
COVINGTON      PTSUNNY   57  45  64 NW6       30.32S
FRANKFORT      PTSUNNY   57  42  57 NE9       30.33S
$$

KYZ054-064>069-076>088-106>120-161700-
SOUTHEAST KENTUCKY

CITY           SKY/WX    TMP DP  RH WIND       PRES   REMARKS
JACKSON        MOSUNNY   56  41  57 VRB5      30.30R
LONDON         MOSUNNY   57  41  55 N10       30.31R
SOMERSET       NOT AVBL
MIDDLESBORO    CLOUDY    55  43  62 NW12      30.30R
MONTICELLO     PTSUNNY   56  44  64 N18       30.34
$$





USA.gov is the U.S. government's official web portal to all federal, state and local government web resources and services.